AWC1DE EGKK-EGJJ

Flight info

Callsign AWC1DE
Flight time 0h 34m
Altitude 20000
Route NOVMA L620 SAM N63 LELNA
Aircraft A320/M-SDE3FGHIRWY/LB1

Departure

Time 2026-04-14 16:28
Airport London Gatwick Airport (EGKK)

Arrival

Time 2026-04-14 17:02
Airport Jersey Airport (EGJJ)
Time Latitude Longitude Altitude Speed Heading
2026-04-14 15:56 51.15489 -0.16441 205 ft 0 kts 76°
2026-04-14 16:17 51.15486 -0.16462 217 ft 2 kts 75°
2026-04-14 16:17 51.15481 -0.16487 210 ft 2 kts 77°
2026-04-14 16:18 51.15477 -0.16512 213 ft 2 kts 79°
2026-04-14 16:18 51.15480 -0.16532 212 ft 1 kts 180°
2026-04-14 16:18 51.15481 -0.16532 212 ft 0 kts 179°
2026-04-14 16:20 51.15464 -0.16527 213 ft 6 kts 168°
2026-04-14 16:20 51.15411 -0.16509 209 ft 9 kts 167°
2026-04-14 16:21 51.15340 -0.16484 212 ft 12 kts 167°
2026-04-14 16:21 51.15296 -0.16533 205 ft 0 kts 255°
2026-04-14 16:22 51.15293 -0.16554 206 ft 7 kts 259°
2026-04-14 16:23 51.15278 -0.16641 210 ft 9 kts 236°
2026-04-14 16:23 51.15241 -0.16655 212 ft 0 kts 166°
2026-04-14 16:25 51.15235 -0.16653 213 ft 3 kts 166°
2026-04-14 16:26 51.15174 -0.16636 209 ft 14 kts 188°
2026-04-14 16:26 51.15135 -0.16713 209 ft 0 kts 257°
2026-04-14 16:26 51.15134 -0.16714 209 ft 1 kts 257°
2026-04-14 16:27 51.15117 -0.16842 206 ft 39 kts 258°
2026-04-14 16:27 51.15009 -0.17631 212 ft 103 kts 257°
2026-04-14 16:27 51.14819 -0.19017 213 ft 151 kts 258°
2026-04-14 16:27 51.14603 -0.20754 633 ft 158 kts 255°
2026-04-14 16:28 51.14388 -0.22487 1352 ft 159 kts 252°
2026-04-14 16:28 51.14148 -0.24188 1997 ft 160 kts 252°
2026-04-14 16:28 51.13882 -0.26026 2358 ft 181 kts 253°
2026-04-14 16:28 51.13578 -0.28114 2661 ft 205 kts 253°
2026-04-14 16:29 51.13236 -0.30479 3089 ft 230 kts 254°
2026-04-14 16:29 51.12873 -0.33031 3740 ft 246 kts 255°
2026-04-14 16:29 51.12490 -0.35748 4640 ft 251 kts 255°
2026-04-14 16:29 51.12116 -0.38448 5582 ft 254 kts 256°
2026-04-14 16:30 51.11730 -0.41232 6532 ft 258 kts 255°
2026-04-14 16:30 51.11178 -0.43960 7374 ft 261 kts 243°
2026-04-14 16:30 51.10373 -0.46556 8214 ft 264 kts 242°
2026-04-14 16:30 51.09549 -0.49203 9059 ft 268 kts 242°
2026-04-14 16:31 51.08714 -0.51885 9892 ft 272 kts 242°
2026-04-14 16:31 51.07922 -0.54417 10604 ft 275 kts 242°
2026-04-14 16:31 51.07047 -0.57211 11365 ft 279 kts 243°
2026-04-14 16:31 51.06210 -0.59884 12095 ft 282 kts 243°
2026-04-14 16:32 51.05404 -0.62745 12838 ft 285 kts 252°
2026-04-14 16:32 51.04937 -0.65822 13576 ft 289 kts 258°
2026-04-14 16:32 51.04521 -0.68965 14263 ft 292 kts 258°
2026-04-14 16:32 51.04100 -0.72132 14863 ft 296 kts 258°
2026-04-14 16:33 51.03669 -0.75348 15069 ft 297 kts 258°
2026-04-14 16:33 51.03224 -0.78658 15139 ft 317 kts 258°
2026-04-14 16:33 51.02748 -0.82182 15284 ft 335 kts 259°
2026-04-14 16:33 51.02247 -0.85871 15771 ft 343 kts 259°
2026-04-14 16:34 51.01748 -0.89542 16358 ft 346 kts 259°
2026-04-14 16:34 51.01237 -0.93295 16993 ft 349 kts 260°
2026-04-14 16:34 51.00732 -0.96991 17622 ft 351 kts 260°
2026-04-14 16:34 51.00211 -1.00793 18015 ft 353 kts 261°
2026-04-14 16:35 50.99683 -1.04634 18102 ft 353 kts 261°
2026-04-14 16:35 50.99163 -1.08392 18123 ft 352 kts 261°
2026-04-14 16:35 50.98637 -1.12191 18108 ft 352 kts 261°
2026-04-14 16:35 50.98109 -1.15990 18109 ft 352 kts 261°
2026-04-14 16:36 50.97580 -1.19785 18114 ft 352 kts 261°
2026-04-14 16:36 50.97053 -1.23572 18122 ft 352 kts 261°
2026-04-14 16:36 50.96507 -1.27367 18106 ft 353 kts 257°
2026-04-14 16:36 50.95589 -1.30993 18110 ft 358 kts 245°
2026-04-14 16:37 50.94154 -1.34265 18113 ft 364 kts 233°
2026-04-14 16:37 50.92284 -1.36933 18123 ft 371 kts 219°
2026-04-14 16:37 50.90011 -1.38952 18112 ft 375 kts 211°
2026-04-14 16:37 50.87796 -1.40717 18109 ft 376 kts 211°
2026-04-14 16:38 50.85419 -1.42605 18111 ft 376 kts 211°
2026-04-14 16:38 50.83079 -1.44461 18117 ft 376 kts 211°
2026-04-14 16:38 50.80732 -1.46318 18107 ft 376 kts 211°
2026-04-14 16:38 50.78393 -1.48164 18107 ft 376 kts 211°
2026-04-14 16:39 50.76051 -1.50014 18106 ft 376 kts 211°
2026-04-14 16:39 50.73708 -1.51869 18095 ft 376 kts 212°
2026-04-14 16:39 50.71396 -1.53706 18087 ft 376 kts 212°
2026-04-14 16:39 50.69062 -1.55563 18087 ft 376 kts 212°
2026-04-14 16:40 50.66723 -1.57421 18087 ft 376 kts 211°
2026-04-14 16:40 50.64389 -1.59268 18095 ft 376 kts 211°
2026-04-14 16:40 50.62040 -1.61123 18083 ft 376 kts 211°
2026-04-14 16:40 50.59700 -1.62963 18088 ft 376 kts 211°
2026-04-14 16:41 50.57352 -1.64809 18092 ft 376 kts 211°
2026-04-14 16:41 50.55007 -1.66653 18095 ft 376 kts 211°
2026-04-14 16:41 50.52661 -1.68496 18085 ft 376 kts 211°
2026-04-14 16:41 50.50350 -1.70309 18088 ft 376 kts 211°
2026-04-14 16:42 50.48010 -1.72139 18083 ft 376 kts 211°
2026-04-14 16:42 50.45670 -1.73971 18092 ft 376 kts 211°
2026-04-14 16:42 50.43433 -1.75721 18084 ft 376 kts 211°
2026-04-14 16:42 50.41085 -1.77554 18082 ft 375 kts 211°
2026-04-14 16:43 50.38748 -1.79374 18085 ft 375 kts 211°
2026-04-14 16:43 50.36409 -1.81194 18097 ft 375 kts 211°
2026-04-14 16:43 50.34068 -1.83017 18083 ft 375 kts 211°
2026-04-14 16:43 50.31720 -1.84848 18082 ft 375 kts 211°
2026-04-14 16:44 50.29418 -1.86642 18082 ft 375 kts 211°
2026-04-14 16:44 50.27079 -1.88461 18094 ft 375 kts 211°
2026-04-14 16:44 50.24735 -1.90275 18084 ft 375 kts 211°
2026-04-14 16:45 50.20049 -1.93887 18085 ft 375 kts 211°
2026-04-14 16:45 50.17740 -1.95666 18092 ft 375 kts 211°
2026-04-14 16:45 50.15401 -1.97466 18085 ft 374 kts 211°
2026-04-14 16:45 50.13070 -1.99261 18079 ft 374 kts 211°
2026-04-14 16:46 50.10743 -2.01057 18084 ft 374 kts 211°
2026-04-14 16:46 50.08468 -2.02809 18091 ft 374 kts 211°
2026-04-14 16:46 50.06134 -2.04602 18080 ft 374 kts 211°
2026-04-14 16:46 50.03804 -2.06388 18082 ft 374 kts 211°
2026-04-14 16:47 50.01464 -2.08180 18082 ft 374 kts 211°
2026-04-14 16:47 49.99148 -2.09933 17860 ft 365 kts 208°
2026-04-14 16:47 49.96753 -2.11161 17589 ft 361 kts 197°
2026-04-14 16:47 49.94351 -2.11972 17325 ft 355 kts 197°
2026-04-14 16:48 49.91957 -2.12784 16977 ft 350 kts 197°
2026-04-14 16:48 49.89587 -2.13594 16535 ft 347 kts 197°
2026-04-14 16:48 49.87230 -2.14405 16079 ft 346 kts 197°
2026-04-14 16:48 49.84880 -2.15211 15620 ft 345 kts 197°
2026-04-14 16:49 49.83333 -2.15739 15314 ft 344 kts 197°
2026-04-14 16:49 49.81000 -2.16536 14876 ft 342 kts 197°
2026-04-14 16:49 49.78740 -2.17306 14438 ft 341 kts 197°
2026-04-14 16:49 49.76424 -2.18094 13991 ft 339 kts 196°
2026-04-14 16:50 49.74118 -2.18874 13500 ft 338 kts 196°
2026-04-14 16:50 49.71832 -2.19645 13064 ft 335 kts 196°
2026-04-14 16:50 49.69606 -2.20444 12636 ft 331 kts 198°
2026-04-14 16:50 49.67412 -2.21371 12202 ft 327 kts 199°
2026-04-14 16:51 49.65236 -2.22365 11768 ft 324 kts 200°
2026-04-14 16:51 49.63088 -2.23369 11339 ft 321 kts 200°
2026-04-14 16:51 49.60954 -2.24361 10918 ft 319 kts 199°
2026-04-14 16:51 49.58834 -2.25332 10498 ft 316 kts 199°
2026-04-14 16:52 49.56735 -2.26278 10248 ft 308 kts 199°
2026-04-14 16:52 49.54745 -2.27164 10124 ft 297 kts 199°
2026-04-14 16:52 49.52793 -2.28025 9996 ft 287 kts 199°
2026-04-14 16:52 49.50891 -2.28866 9724 ft 282 kts 199°
2026-04-14 16:53 49.48999 -2.29706 9357 ft 281 kts 199°
2026-04-14 16:53 49.47181 -2.30514 8941 ft 277 kts 199°
2026-04-14 16:53 49.45395 -2.31305 8575 ft 266 kts 199°
2026-04-14 16:53 49.43678 -2.32061 8439 ft 247 kts 199°
2026-04-14 16:54 49.42106 -2.32751 8311 ft 229 kts 199°
2026-04-14 16:54 49.40613 -2.33407 8101 ft 217 kts 199°
2026-04-14 16:54 49.39171 -2.34045 7730 ft 214 kts 199°
2026-04-14 16:54 49.37745 -2.34680 7310 ft 212 kts 199°
2026-04-14 16:55 49.36330 -2.35307 6893 ft 211 kts 199°
2026-04-14 16:55 49.34989 -2.36090 6479 ft 207 kts 208°
2026-04-14 16:55 49.33710 -2.37082 6050 ft 206 kts 210°
2026-04-14 16:55 49.32442 -2.38107 5574 ft 205 kts 211°
2026-04-14 16:56 49.31168 -2.39146 4971 ft 209 kts 211°
2026-04-14 16:56 49.29869 -2.40208 4335 ft 214 kts 210°
2026-04-14 16:56 49.28430 -2.40851 3900 ft 214 kts 190°
2026-04-14 16:56 49.26996 -2.41145 3802 ft 202 kts 191°
2026-04-14 16:57 49.25648 -2.41442 3679 ft 190 kts 191°
2026-04-14 16:57 49.24374 -2.41727 3520 ft 181 kts 192°
2026-04-14 16:57 49.23161 -2.41999 3249 ft 170 kts 191°
2026-04-14 16:57 49.22052 -2.42167 3022 ft 156 kts 180°
2026-04-14 16:58 49.21031 -2.41792 2934 ft 150 kts 159°
2026-04-14 16:58 49.20177 -2.40910 2872 ft 151 kts 139°
2026-04-14 16:58 49.19566 -2.39613 2770 ft 152 kts 117°
2026-04-14 16:58 49.19292 -2.38049 2629 ft 153 kts 95°
2026-04-14 16:59 49.19370 -2.36440 2450 ft 152 kts 83°
2026-04-14 16:59 49.19506 -2.34845 2250 ft 151 kts 82°
2026-04-14 16:59 49.19640 -2.33263 2051 ft 149 kts 82°
2026-04-14 16:59 49.19774 -2.31691 1846 ft 149 kts 82°
2026-04-14 17:00 49.19906 -2.30125 1642 ft 148 kts 83°
2026-04-14 17:00 49.20038 -2.28567 1435 ft 147 kts 83°
2026-04-14 17:00 49.20168 -2.27030 1235 ft 146 kts 82°
2026-04-14 17:00 49.20296 -2.25505 1032 ft 145 kts 83°
2026-04-14 17:01 49.20423 -2.24004 840 ft 143 kts 84°
2026-04-14 17:01 49.20546 -2.22483 610 ft 141 kts 85°
2026-04-14 17:01 49.20675 -2.21030 372 ft 138 kts 87°
2026-04-14 17:01 49.20786 -2.19643 291 ft 111 kts 82°
2026-04-14 17:02 49.20852 -2.18887 288 ft 52 kts 84°
2026-04-14 17:02 49.20886 -2.18464 284 ft 19 kts 90°
2026-04-14 17:02 49.20792 -2.18388 295 ft 17 kts 211°
2026-04-14 17:02 49.20731 -2.18521 287 ft 15 kts 270°
2026-04-14 17:03 49.20719 -2.18694 291 ft 18 kts 264°
2026-04-14 17:03 49.20703 -2.18891 288 ft 19 kts 260°
2026-04-14 17:03 49.20683 -2.19106 290 ft 21 kts 262°
2026-04-14 17:03 49.20703 -2.19336 290 ft 23 kts 286°
2026-04-14 17:04 49.20694 -2.19579 290 ft 25 kts 259°
2026-04-14 17:04 49.20619 -2.19666 290 ft 11 kts 167°
2026-04-14 17:04 49.20563 -2.19638 287 ft 0 kts 162°
2026-04-14 17:04 49.20562 -2.19637 287 ft 0 kts 161°